Wetterdaten: Woche 05.02.07 - 11.02.07 (KW6)
Datum Zeit Temperatur Luftfeuchte Luftdruck Niederschlag
05.02.2007 00:00 -2,5 C 96 % 1024 hPa 0,0 l/m
05.02.2007 01:00 -3,2 C 97 % 1024 hPa 0,0 l/m
05.02.2007 02:00 -3,7 C 97 % 1023 hPa 0,0 l/m
05.02.2007 03:00 -4,1 C 98 % 1023 hPa 0,0 l/m
05.02.2007 04:00 -4,1 C 98 % 1022 hPa 0,0 l/m
05.02.2007 05:00 -2,6 C 98 % 1022 hPa 0,0 l/m
05.02.2007 06:00 -2,0 C 98 % 1022 hPa 0,0 l/m
05.02.2007 07:00 -1,9 C 98 % 1021 hPa 0,0 l/m
05.02.2007 08:00 -1,5 C 98 % 1021 hPa 0,0 l/m
05.02.2007 09:00 -0,4 C 98 % 1020 hPa 0,0 l/m
05.02.2007 10:00 1,2 C 98 % 1019 hPa 0,0 l/m
05.02.2007 11:00 3,1 C 85 % 1019 hPa 0,0 l/m
05.02.2007 12:00 5,8 C 62 % 1018 hPa 0,0 l/m
05.02.2007 13:00 7,1 C 57 % 1017 hPa 0,0 l/m
05.02.2007 14:00 6,9 C 59 % 1016 hPa 0,0 l/m
05.02.2007 15:00 6,5 C 60 % 1015 hPa 0,0 l/m
05.02.2007 16:00 6,4 C 61 % 1015 hPa 0,0 l/m
05.02.2007 17:00 6,0 C 64 % 1014 hPa 0,0 l/m
05.02.2007 18:00 5,7 C 67 % 1014 hPa 0,0 l/m
05.02.2007 19:00 5,2 C 71 % 1014 hPa 0,0 l/m
05.02.2007 20:00 4,8 C 79 % 1013 hPa 1,0 l/m
05.02.2007 21:00 4,4 C 89 % 1013 hPa 1,0 l/m
05.02.2007 22:00 3,8 C 94 % 1013 hPa 1,0 l/m
05.02.2007 23:00 3,3 C 98 % 1012 hPa 1,0 l/m
06.02.2007 00:00 3,2 C 98 % 1011 hPa 1,0 l/m
06.02.2007 01:00 3,2 C 98 % 1011 hPa 0,0 l/m
06.02.2007 02:00 3,0 C 98 % 1010 hPa 0,0 l/m
06.02.2007 03:00 2,9 C 98 % 1010 hPa 0,0 l/m
06.02.2007 04:00 2,7 C 98 % 1009 hPa 1,0 l/m
06.02.2007 05:00 2,1 C 98 % 1008 hPa 0,0 l/m
06.02.2007 06:00 1,7 C 98 % 1008 hPa 1,0 l/m
06.02.2007 07:00 1,3 C 98 % 1008 hPa 0,0 l/m
06.02.2007 08:00 0,8 C 98 % 1008 hPa 0,0 l/m
06.02.2007 09:00 0,6 C 98 % 1008 hPa 0,0 l/m
06.02.2007 10:00 0,8 C 98 % 1007 hPa 0,0 l/m
06.02.2007 11:00 1,1 C 98 % 1007 hPa 1,0 l/m
06.02.2007 12:00 1,5 C 98 % 1007 hPa 3,0 l/m
06.02.2007 13:00 1,3 C 98 % 1006 hPa 1,0 l/m
06.02.2007 14:00 1,0 C 98 % 1006 hPa 0,0 l/m
06.02.2007 15:00 0,8 C 98 % 1006 hPa 0,0 l/m
06.02.2007 16:00 0,6 C 98 % 1006 hPa 0,0 l/m
06.02.2007 17:00 0,4 C 98 % 1006 hPa 0,0 l/m
06.02.2007 18:00 0,4 C 98 % 1006 hPa 0,0 l/m
06.02.2007 19:00 0,4 C 98 % 1006 hPa 0,0 l/m
06.02.2007 20:00 0,4 C 98 % 1005 hPa 0,0 l/m
06.02.2007 21:00 0,3 C 98 % 1005 hPa 0,0 l/m
06.02.2007 22:00 0,4 C 98 % 1005 hPa 0,0 l/m
06.02.2007 23:00 0,4 C 98 % 1005 hPa 0,0 l/m
07.02.2007 00:00 0,2 C 98 % 1004 hPa 0,0 l/m
07.02.2007 01:00 0,3 C 98 % 1004 hPa 0,0 l/m
07.02.2007 02:00 0,3 C 98 % 1004 hPa 0,0 l/m
07.02.2007 03:00 0,5 C 98 % 1004 hPa 0,0 l/m
07.02.2007 04:00 0,6 C 98 % 1003 hPa 0,0 l/m
07.02.2007 05:00 0,5 C 98 % 1003 hPa 0,0 l/m
07.02.2007 06:00 0,5 C 98 % 1003 hPa 0,0 l/m
07.02.2007 07:00 0,6 C 98 % 1002 hPa 0,0 l/m
07.02.2007 08:00 0,6 C 98 % 1003 hPa 0,0 l/m
07.02.2007 09:00 0,8 C 98 % 1002 hPa 0,0 l/m
07.02.2007 10:00 1,4 C 98 % 1003 hPa 1,0 l/m
07.02.2007 11:00 2,3 C 98 % 1002 hPa 1,0 l/m
07.02.2007 12:00 2,8 C 98 % 1002 hPa 0,0 l/m
07.02.2007 13:00 3,4 C 98 % 1001 hPa 0,0 l/m
07.02.2007 14:00 3,5 C 96 % 1001 hPa 0,0 l/m
07.02.2007 15:00 3,6 C 95 % 1001 hPa 0,0 l/m
07.02.2007 16:00 3,3 C 94 % 1001 hPa 0,0 l/m
07.02.2007 17:00 3,0 C 97 % 1001 hPa 0,0 l/m
07.02.2007 18:00 2,7 C 98 % 1001 hPa 0,0 l/m
07.02.2007 19:00 2,2 C 98 % 1001 hPa 1,0 l/m
07.02.2007 20:00 1,7 C 98 % 1001 hPa 0,0 l/m
07.02.2007 21:00 2,4 C 98 % 1001 hPa 0,0 l/m
07.02.2007 22:00 3,2 C 94 % 1001 hPa 0,0 l/m
07.02.2007 23:00 3,2 C 93 % 1001 hPa 0,0 l/m
08.02.2007 00:00 3,5 C 96 % 1001 hPa 1,0 l/m
08.02.2007 01:00 3,5 C 96 % 1001 hPa 0,0 l/m
08.02.2007 02:00 3,8 C 97 % 1001 hPa 0,0 l/m
08.02.2007 03:00 3,8 C 97 % 1001 hPa 0,0 l/m
08.02.2007 04:00 3,6 C 95 % 1001 hPa 0,0 l/m
08.02.2007 05:00 3,5 C 95 % 1001 hPa 0,0 l/m
08.02.2007 06:00 3,7 C 87 % 1001 hPa 0,0 l/m
08.02.2007 07:00 2,8 C 93 % 1001 hPa 0,0 l/m
08.02.2007 08:00 2,5 C 98 % 1001 hPa 0,0 l/m
08.02.2007 09:00 3,5 C 98 % 1000 hPa 0,0 l/m
08.02.2007 10:00 4,2 C 87 % 999 hPa 0,0 l/m
08.02.2007 11:00 4,6 C 80 % 999 hPa 0,0 l/m
08.02.2007 12:00 3,6 C 91 % 999 hPa 1,0 l/m
08.02.2007 13:00 3,4 C 98 % 1000 hPa 0,0 l/m
08.02.2007 14:00 4,2 C 93 % 999 hPa 0,0 l/m
08.02.2007 15:00 4,9 C 87 % 1000 hPa 0,0 l/m
08.02.2007 16:00 5,4 C 80 % 1000 hPa 0,0 l/m
08.02.2007 17:00 4,8 C 86 % 1001 hPa 0,0 l/m
08.02.2007 18:00 3,7 C 97 % 1001 hPa 0,0 l/m
08.02.2007 19:00 3,7 C 98 % 993 hPa 0,0 l/m
08.02.2007 20:00 3,6 C 94 % 1002 hPa 0,0 l/m
08.02.2007 21:00 3,5 C 93 % 1001 hPa 0,0 l/m
08.02.2007 22:00 3,4 C 90 % 1002 hPa 1,0 l/m
08.02.2007 23:00 2,6 C 97 % 1003 hPa 1,0 l/m
09.02.2007 00:00 2,5 C 97 % 1004 hPa 0,0 l/m
09.02.2007 01:00 2,2 C 96 % 1005 hPa 0,0 l/m
09.02.2007 02:00 2,0 C 98 % 1006 hPa 0,0 l/m
09.02.2007 03:00 1,6 C 96 % 1006 hPa 0,0 l/m
09.02.2007 04:00 1,6 C 95 % 1005 hPa 0,0 l/m
09.02.2007 05:00 1,7 C 95 % 1005 hPa 0,0 l/m
09.02.2007 06:00 1,5 C 95 % 1005 hPa 0,0 l/m
09.02.2007 07:00 1,8 C 92 % 1006 hPa 0,0 l/m
09.02.2007 08:00 0,7 C 93 % 1007 hPa 0,0 l/m
09.02.2007 09:00 1,1 C 98 % 1007 hPa 0,0 l/m
09.02.2007 10:00 3,4 C 94 % 1007 hPa 0,0 l/m
09.02.2007 11:00 5,3 C 74 % 1007 hPa 0,0 l/m
09.02.2007 12:00 7,1 C 62 % 1007 hPa 0,0 l/m
09.02.2007 13:00 9,1 C 50 % 1007 hPa 0,0 l/m
09.02.2007 14:00 10,0 C 46 % 1007 hPa 0,0 l/m
09.02.2007 15:00 9,6 C 47 % 1008 hPa 0,0 l/m
09.02.2007 16:00 8,4 C 51 % 1008 hPa 0,0 l/m
09.02.2007 17:00 6,1 C 63 % 1009 hPa 0,0 l/m
09.02.2007 18:00 3,6 C 74 % 1009 hPa 0,0 l/m
09.02.2007 19:00 2,5 C 81 % 1010 hPa 0,0 l/m
09.02.2007 20:00 2,1 C 85 % 1010 hPa 0,0 l/m
09.02.2007 21:00 1,1 C 86 % 1010 hPa 0,0 l/m
09.02.2007 22:00 -0,0 C 88 % 1009 hPa 0,0 l/m
09.02.2007 23:00 -0,9 C 93 % 1009 hPa 0,0 l/m
10.02.2007 00:00 -1,4 C 96 % 1009 hPa 0,0 l/m
10.02.2007 01:00 -1,3 C 98 % 1009 hPa 0,0 l/m
10.02.2007 02:00 -1,8 C 98 % 1008 hPa 0,0 l/m
10.02.2007 03:00 -2,2 C 98 % 1008 hPa 0,0 l/m
10.02.2007 04:00 -2,3 C 98 % 1008 hPa 0,0 l/m
10.02.2007 05:00 -2,2 C 98 % 1007 hPa 0,0 l/m
10.02.2007 06:00 -2,1 C 98 % 1007 hPa 0,0 l/m
10.02.2007 07:00 -2,7 C 98 % 1007 hPa 0,0 l/m
10.02.2007 08:00 -2,5 C 98 % 1007 hPa 0,0 l/m
10.02.2007 09:00 -0,8 C 98 % 1007 hPa 0,0 l/m
10.02.2007 10:00 2,2 C 90 % 1008 hPa 0,0 l/m
10.02.2007 11:00 4,1 C 70 % 1008 hPa 0,0 l/m
10.02.2007 12:00 6,0 C 62 % 1008 hPa 0,0 l/m
10.02.2007 13:00 6,6 C 62 % 1008 hPa 0,0 l/m
10.02.2007 14:00 6,5 C 65 % 1008 hPa 0,0 l/m
10.02.2007 15:00 6,2 C 68 % 1009 hPa 0,0 l/m
10.02.2007 16:00 5,6 C 72 % 1009 hPa 0,0 l/m
10.02.2007 17:00 4,9 C 76 % 1010 hPa 0,0 l/m
10.02.2007 18:00 4,4 C 82 % 1011 hPa 0,0 l/m
10.02.2007 19:00 3,9 C 92 % 1011 hPa 0,0 l/m
10.02.2007 20:00 3,7 C 97 % 1012 hPa 1,0 l/m
10.02.2007 21:00 3,5 C 98 % 1012 hPa 1,0 l/m
10.02.2007 22:00 3,5 C 98 % 1012 hPa 1,0 l/m
10.02.2007 23:00 3,4 C 98 % 1013 hPa 0,0 l/m
11.02.2007 00:00 3,4 C 98 % 1013 hPa 0,0 l/m
11.02.2007 01:00 3,7 C 98 % 1013 hPa 0,0 l/m
11.02.2007 02:00 3,6 C 98 % 1013 hPa 0,0 l/m
11.02.2007 03:00 3,5 C 98 % 1012 hPa 0,0 l/m
11.02.2007 04:00 3,1 C 98 % 1012 hPa 0,0 l/m
11.02.2007 05:00 2,3 C 98 % 1011 hPa 0,0 l/m
11.02.2007 06:00 1,4 C 98 % 1010 hPa 0,0 l/m
11.02.2007 07:00 1,3 C 98 % 1009 hPa 0,0 l/m
11.02.2007 08:00 1,1 C 98 % 1009 hPa 0,0 l/m
11.02.2007 09:00 1,6 C 98 % 1008 hPa 1,0 l/m
11.02.2007 10:00 2,7 C 98 % 1007 hPa 0,0 l/m
11.02.2007 11:00 3,3 C 93 % 1008 hPa 1,0 l/m
11.02.2007 12:00 3,6 C 97 % 1008 hPa 1,0 l/m
11.02.2007 13:00 4,5 C 93 % 1007 hPa 0,0 l/m
11.02.2007 14:00 5,8 C 80 % 1007 hPa 0,0 l/m
11.02.2007 15:00 6,5 C 73 % 1007 hPa 0,0 l/m
11.02.2007 16:00 5,9 C 83 % 1006 hPa 0,0 l/m
11.02.2007 17:00 5,0 C 94 % 1007 hPa 2,0 l/m
11.02.2007 18:00 3,4 C 95 % 1008 hPa 0,0 l/m
11.02.2007 19:00 4,3 C 98 % 1008 hPa 1,0 l/m
11.02.2007 20:00 5,1 C 95 % 1008 hPa 0,0 l/m
11.02.2007 21:00 5,3 C 87 % 1008 hPa 0,0 l/m
11.02.2007 22:00 5,4 C 90 % 1009 hPa 3,0 l/m
11.02.2007 23:00 5,1 C 88 % 1009 hPa 1,0 l/m
Min-Datum _ 05.02.07 09.02.07 08.02.07 -
_ Min-Zeit 04:22 13:45 19:54 -
Minimum _ -4,3 C 44 % 745 hPa -
Max-Datum _ 09.02.07 05.02.07 05.02.07 06.02.07
_ Max-Zeit 14:58 02:33 00:00 12:46
Maximum _ 10,3 C 98 % 1024 hPa 3,0 l/m
Durchschnitt _ 2,6 C 91 % 1008 hPa #32,0 l/m

Durchschnitt Minimum Temp.2,3 C
Durchschnitt Maximum Temp.2,9 C